Probability
0 0 0 0 0 0 0 0 0 0 0 0 0 0 0 0 0 0 0 0 0 0 0 0 0 0 0 0 0 0 0 0 0 0 0 0 0 0 0 0 0 0 0
0 0 0 0 0 0 0 0 0 0 0 0 0 0 0 0 0 0 0 0 0 0 0 0 0 0 0 0 0 0 0 0 0 0 0 0 0 0 0 0 0 0 0
0 0 0 0 0 0 0 0 0 0 0 0 0 0 0 0 0 0 0 0 0 0 0 0 0 0 0 0 0 0 0 0 0 0 0 0 0 0 0 0 0 0 0
0 0 0 0 0 0 0 0 0 0 0 0 0 0 0 0 0 0 0 0 0 0 0 0 0 0 0 0 0 0 0 0 0 0 0 0 0 0 0 0 0 0 0
0 0 0 0 0 0 0 0 0 0 0 0 0 0 0 0 0 0 0 0 0 0 0 0 0 0 0 0 0 0 0 0 0 0 0 0 0 0 0 0 0 0 0
0 0 0 0 0 0 0 0 0 0 0 0 0 0 0 0 0 0 0 0 0 0 0 0 0 0 0 0 0 0 0 0 0 0 0 0 0 0 0 0 0 0 0
0 0 0 0 0 0 0 0 0 0 0 0 0 0 0 0 0 0 0 0 0 0 0 0 0 0 0 0 0 0 0 0 0 0 0 0 0 0 0 0 0 0 0
0 0 0 0 0 0 0 0 0 0 0 0 0 0 0 0 0 0 0 0 0 0 0 0 0 0 0 0 0 0 0 0 0 0 0 0 0 0 0 0 0 0 0
0 0 0 0 0 0 0 0 0 0 0 0 0 0 0 0 0 0 0 0 0 0 0 0 0 0 0 0 0 0 0 0 0 0 0 0 0 0 0 0 0 0 0
0 0 0 0 0 0 0 0 0 0 0 0 0 0 0 0 0 0 0 0 0 0 0 0 0 0 0 0 0 0 0 0 0 0 0 0 0 0 0 0 0 0 0
0 0 0 0 0 0 0 0 0 0 0 0 0 0 0 0 0 0 0 0 0 0 0 0 0 0 0 0 0 0 0 0 0 0 0 0 0 0 0 0 0 0 0
0 0 0 0 0 0 0 0 0 0 0 0 0 0 0 0 0 0 0 0 0 0 0 0 0 0 0 0 0 0 0 0 0 0 0 0 0 0 0 0 0 0 0
0 0 0 0 0 0 0 0 0 0 0 0 0 0 0 0 0 0 0 0 0 0 0 0 0 0 0 0 0 0 0 0 0 0 0 0 0 0 0 0 0 0 0
0 0 0 0 0 0 0 0 0 0 0 0 0 0 0 0 0 0 0 0 0 0 0 0 0 0 0 0 0 0 0 0 0 0 0 0 0 0 0 0 0 0 0
0 0 0 0 0 0 0 0 0 0 0 0 0 0 0 0 0 0 0 0 0 0 0 0 0 0 0 0 0 0 0 0 0 0 0 0 0 0 0 0 0 0 0
0 0 0 0 0 0 0 0 0 0 0 0 0 0 0 0 0 0 0 0 0 0 0 0 0 0 0 0 0 0 0 0 0 0 0 0 0 0 0 0 0 0 0
0 0 0 0 0 0 0 0 0 0 0 0 0 0 0 0 0 0 0 0 0 0 0 0 0 0 0 0 0 0 0 0 0 0 0 0 0 0 0 0 0 0 0
0 0 0 0 0 0 0 0 0 0 0 0 0 0 0 0 0 0 0 0 0 0 0 0 0 0 0 0 0 0 0 0 0 0 0 0 0 0 0 0 0 0 0
0 0 0 0 0 0 0 0 0 0 0 0 0 0 0 0 0 0 0 0 0 0 0 0 0 0 0 0 0 0 0 0 0 0 0 0 0 0 0 0 0 0 0
0 0 0 0 0 0 0 0 0 0 0 0 0 0 0 0 0 0 0 0 0 0 0 0 0 0 0 0 0 0 0 0 0 0 0 0 0 0 0 0 0 0 0
0 0 0 0 0 0 0 0 0 0 0 0 0 0 0 0 0 0 0 0 0 0 0 0 0 0 0 0 0 0 0 0 0 0 0 0 0 0 0 0 0 0 0
0 0 0 0 0 0 0 0 0 0 0 0 0 0 0 0 0 0 0 0 0 0 0 0 0 0 0 0 0 0 0 0 0 0 0 0 0 0 0 0 0 0 0
0 0 0 0 0 0 0 0 0 0 0 0 0 0 0 0 0 0 0 0 0 0 0 0 0 0 0 0 0 0 0 0 0 0 0 0 0 0 0 0 0 0 0
0 0 0 0 0 0 0 0 0 0 0 0 0 0 0 0 0 0 0 0 0 0 0 0 0 0 0 0 0 0 0 0 0 0 0 0 0 0 0 0 0 0 0
0 0 0 0 0 0 0 0 0 0 0 0 0 0 0 0 0 0 0 0 0 0 0 0 0 0 0 0 0 0 0 0 0 0 0 0 0 0 0 0 0 0 0
0 0 0 0 0 0 0 0 0 0 0 0 0 0 0 0 0 0 0 0 0 0 0 0 0 0 0 0 0 0 0 0 0 0 0 0 0 0 0 0 0 0 0
Height
5763 5765 5768 5771 5773 5776 5778 5780 5781 5783 5784 5785 5787 5788 5789 5789 5790 5790 5790 5790 5790 5790 5789 5788 5788 5787 5786 5784 5783 5781 5779 5777 5776 5774 5772 5770 5767 5765 5762 5759 5757 5754 5751
5754 5757 5760 5763 5766 5768 5770 5772 5774 5775 5777 5778 5780 5781 5782 5782 5783 5783 5783 5783 5783 5783 5782 5782 5781 5780 5779 5777 5776 5774 5772 5770 5769 5767 5765 5763 5762 5758 5755 5752 5749 5746 5743
5745 5748 5751 5754 5757 5760 5762 5764 5766 5767 5769 5770 5771 5773 5773 5774 5775 5776 5776 5776 5776 5775 5775 5774 5774 5773 5772 5770 5768 5767 5765 5763 5761 5759 5757 5756 5754 5751 5749 5745 5742 5738 5735
5735 5738 5741 5744 5748 5750 5753 5755 5757 5759 5760 5762 5763 5765 5766 5767 5767 5767 5768 5768 5768 5767 5767 5767 5766 5765 5764 5762 5761 5759 5757 5756 5754 5751 5749 5747 5745 5743 5741 5738 5734 5731 5727
5725 5728 5731 5735 5738 5740 5743 5745 5747 5749 5751 5753 5755 5756 5758 5759 5759 5759 5759 5759 5759 5759 5759 5758 5758 5757 5755 5754 5753 5751 5749 5747 5746 5743 5741 5739 5737 5734 5732 5730 5727 5723 5719
5715 5718 5721 5724 5727 5730 5732 5735 5737 5740 5742 5743 5745 5747 5749 5749 5750 5750 5750 5750 5751 5751 5750 5750 5749 5748 5747 5746 5744 5742 5741 5739 5737 5735 5733 5730 5728 5725 5722 5720 5717 5714 5711
5703 5707 5710 5713 5716 5719 5722 5724 5727 5729 5731 5733 5735 5737 5739 5739 5740 5741 5741 5741 5742 5742 5741 5741 5740 5739 5738 5737 5735 5734 5732 5730 5728 5726 5723 5721 5718 5715 5712 5710 5707 5705 5701
5692 5696 5699 5702 5705 5708 5711 5713 5716 5718 5720 5722 5725 5727 5728 5729 5731 5731 5732 5732 5732 5732 5732 5731 5731 5730 5729 5727 5726 5724 5723 5721 5719 5716 5714 5711 5708 5705 5702 5700 5697 5694 5692
5681 5684 5688 5690 5693 5696 5699 5702 5704 5707 5710 5712 5714 5716 5717 5719 5720 5721 5721 5722 5722 5722 5722 5721 5721 5720 5719 5717 5716 5715 5713 5711 5709 5707 5704 5701 5698 5695 5692 5689 5686 5683 5681
5670 5673 5676 5679 5682 5685 5688 5690 5693 5696 5698 5701 5703 5705 5707 5708 5709 5710 5711 5712 5712 5712 5711 5711 5710 5710 5709 5708 5706 5705 5703 5701 5699 5697 5694 5691 5688 5685 5682 5678 5675 5671 5669
5658 5661 5664 5667 5670 5673 5676 5679 5682 5684 5687 5689 5692 5694 5696 5697 5698 5699 5700 5701 5701 5701 5701 5700 5700 5699 5699 5697 5696 5695 5693 5691 5689 5686 5683 5681 5678 5675 5671 5668 5664 5661 5657
5646 5649 5652 5655 5658 5661 5664 5667 5670 5673 5675 5678 5680 5682 5684 5685 5687 5688 5689 5690 5690 5690 5690 5690 5689 5689 5688 5687 5686 5684 5682 5680 5678 5676 5673 5670 5667 5664 5661 5657 5654 5650 5645
5634 5637 5640 5643 5646 5649 5652 5655 5658 5661 5663 5665 5667 5669 5671 5673 5675 5677 5677 5678 5678 5678 5678 5678 5678 5677 5677 5676 5675 5673 5671 5669 5667 5665 5662 5659 5656 5653 5650 5646 5643 5639 5634
5622 5625 5628 5630 5633 5636 5639 5642 5645 5648 5650 5653 5655 5657 5659 5661 5662 5664 5665 5666 5666 5667 5667 5667 5667 5666 5665 5664 5663 5662 5660 5658 5656 5653 5651 5648 5645 5642 5639 5635 5631 5627 5622
5609 5612 5615 5617 5620 5623 5626 5629 5632 5635 5637 5640 5643 5645 5647 5648 5650 5651 5653 5653 5654 5655 5655 5655 5655 5654 5654 5653 5651 5650 5648 5647 5644 5642 5639 5637 5634 5631 5627 5624 5620 5615 5610
5596 5599 5601 5604 5607 5610 5613 5616 5619 5622 5625 5628 5631 5633 5634 5636 5637 5639 5640 5641 5642 5642 5642 5643 5643 5642 5642 5641 5639 5638 5636 5635 5633 5630 5628 5625 5622 5619 5615 5612 5607 5603 5598
5583 5586 5588 5591 5595 5597 5600 5603 5606 5609 5612 5615 5618 5620 5621 5623 5624 5626 5627 5628 5629 5629 5629 5630 5630 5630 5629 5628 5627 5625 5624 5622 5621 5618 5616 5613 5610 5607 5603 5599 5595 5590 5585
5570 5572 5575 5578 5581 5584 5587 5589 5592 5595 5598 5601 5604 5606 5608 5610 5611 5612 5614 5615 5615 5616 5616 5617 5617 5616 5616 5615 5614 5612 5611 5610 5608 5606 5604 5601 5598 5595 5591 5587 5583 5578 5573
5557 5559 5562 5565 5568 5571 5573 5576 5579 5582 5585 5588 5590 5592 5594 5596 5598 5599 5601 5601 5602 5602 5603 5603 5603 5603 5603 5602 5601 5599 5598 5597 5595 5593 5591 5588 5585 5582 5578 5575 5571 5566 5561
5543 5546 5548 5551 5554 5557 5559 5562 5565 5568 5571 5574 5576 5578 5580 5582 5584 5586 5586 5587 5588 5589 5589 5589 5589 5589 5589 5588 5587 5586 5585 5584 5582 5580 5578 5575 5573 5569 5566 5562 5558 5553 5549
5531 5533 5535 5538 5541 5543 5546 5549 5552 5555 5557 5559 5561 5564 5566 5568 5569 5571 5572 5573 5573 5574 5575 5575 5576 5576 5575 5575 5574 5572 5571 5570 5569 5567 5565 5562 5560 5556 5553 5549 5545 5540 5535
5519 5520 5522 5525 5528 5530 5532 5536 5539 5541 5543 5545 5547 5549 5551 5553 5555 5556 5557 5558 5559 5559 5560 5561 5562 5562 5561 5561 5560 5558 5557 5556 5555 5553 5551 5549 5546 5543 5539 5535 5531 5527 5522
5506 5508 5509 5512 5514 5516 5519 5522 5524 5526 5528 5531 5533 5535 5537 5539 5540 5542 5543 5544 5545 5545 5546 5547 5547 5548 5547 5547 5546 5545 5543 5542 5541 5540 5538 5535 5533 5529 5526 5522 5518 5514 5509
5493 5495 5497 5499 5501 5503 5505 5508 5510 5512 5514 5517 5520 5522 5524 5525 5526 5528 5529 5530 5531 5532 5532 5533 5533 5533 5533 5532 5532 5531 5530 5528 5527 5526 5524 5522 5519 5516 5513 5509 5505 5501 5496
5481 5482 5483 5485 5487 5489 5492 5494 5496 5498 5500 5503 5506 5508 5510 5511 5513 5514 5515 5516 5517 5517 5518 5518 5518 5518 5518 5518 5517 5517 5516 5515 5514 5512 5510 5508 5506 5503 5499 5496 5492 5487 5483
5468 5469 5471 5472 5474 5476 5478 5480 5482 5484 5487 5489 5492 5494 5495 5497 5498 5500 5501 5501 5503 5503 5503 5503 5504 5504 5504 5503 5503 5503 5502 5501 5500 5499 5497 5495 5492 5490 5486 5483 5479 5474 5470
Wind_Speed
38 38 37 37 36 35 33 32 32 31 31 30 29 29 29 29 29 29 29 29 29 29 28 28 28 29 29 30 30 30 31 31 32 32 32 32 33 33 33 34 34 35 35
40 39 39 38 37 36 35 34 33 33 32 32 31 31 31 31 30 30 30 30 30 30 30 30 30 31 31 31 32 32 32 33 33 33 33 33 33 34 35 35 36 36 37
42 41 41 41 40 38 37 36 35 35 35 34 34 33 33 32 32 32 32 32 32 32 32 32 32 32 32 33 33 34 34 34 34 34 35 35 34 35 35 36 37 38 39
43 43 43 43 42 41 40 39 38 38 37 37 36 35 34 34 34 34 34 34 33 33 33 34 34 34 34 34 34 35 35 35 35 36 36 37 37 37 37 37 38 39 40
45 44 44 44 44 43 43 41 40 40 40 39 38 37 36 36 36 36 36 36 35 35 35 35 35 35 35 36 36 36 36 36 37 37 38 38 39 39 39 39 39 40 41
46 46 46 45 45 45 45 44 42 41 41 41 40 40 39 38 38 38 38 37 37 36 36 37 37 37 37 37 37 37 37 38 39 39 39 40 40 41 41 41 41 42 42
46 46 47 47 47 46 46 46 44 43 43 43 42 42 41 41 40 40 40 39 38 38 38 38 38 39 39 39 39 39 39 40 40 41 41 42 42 42 43 43 43 43 44
46 46 47 47 48 48 47 47 46 45 45 44 44 43 42 42 41 41 41 41 40 40 40 40 40 40 40 40 41 41 41 41 41 42 43 43 43 44 44 44 45 45 45
46 46 47 47 48 49 49 48 48 47 46 46 45 45 44 43 42 42 42 42 42 42 42 42 42 41 41 41 42 42 42 43 43 43 44 44 44 45 45 45 46 47 46
46 46 47 48 49 50 49 49 49 48 48 47 46 45 45 44 45 44 43 43 43 44 44 43 43 42 42 42 43 43 43 44 44 44 45 44 45 46 46 46 47 47 48
46 47 47 49 49 50 50 50 49 48 48 47 47 46 46 46 45 45 44 44 45 45 45 44 44 44 44 43 44 44 44 44 45 46 46 45 46 47 47 47 48 48 49
45 46 46 48 48 49 49 50 49 49 48 48 48 47 47 47 46 46 45 45 45 45 45 45 44 44 44 44 44 44 45 45 46 46 47 46 46 46 47 47 48 49 50
44 45 45 46 47 48 48 49 50 50 49 49 49 48 48 48 47 47 46 46 46 46 46 45 45 45 45 44 45 45 46 46 47 47 47 47 47 47 48 48 49 50 51
45 45 45 46 47 48 48 48 49 50 50 50 50 49 49 48 48 48 48 47 47 47 47 47 47 46 46 46 47 47 47 48 48 48 48 48 47 48 48 49 50 51 51
45 46 46 46 47 48 48 49 49 50 51 51 50 49 49 49 48 49 49 49 48 48 48 48 48 48 49 49 49 48 48 48 48 48 48 48 47 48 49 49 50 51 52
45 46 46 46 46 48 48 49 50 51 52 52 51 51 50 49 49 49 49 50 50 49 49 50 49 49 49 49 49 49 49 49 49 49 48 48 48 48 49 50 51 51 52
47 48 48 47 47 48 48 49 49 51 51 52 53 52 51 51 50 51 51 51 51 51 52 51 51 51 50 50 50 50 51 50 50 49 49 49 49 50 50 51 51 51 52
47 48 48 48 48 49 50 51 51 51 51 52 52 51 51 52 52 53 53 53 53 53 53 53 52 52 51 51 51 51 51 51 50 49 49 49 49 50 51 51 51 52 52
47 48 48 49 49 50 51 51 52 52 51 50 51 51 51 52 53 53 53 53 54 53 52 52 52 52 51 51 51 51 51 50 49 49 49 49 49 50 51 52 52 52 52
47 48 48 49 49 50 51 51 51 53 52 51 51 51 51 51 52 53 53 54 54 54 53 52 52 52 51 51 51 51 51 50 49 49 49 50 50 51 51 52 52 52 52
46 47 48 48 48 50 50 51 51 51 51 50 51 51 51 52 52 53 53 53 53 54 53 53 52 52 51 51 51 51 51 51 51 51 51 51 51 51 51 52 52 52 52
44 45 46 47 47 48 49 50 50 51 51 50 50 50 50 51 52 52 52 52 53 53 53 53 52 51 51 51 52 51 51 51 52 52 52 52 51 51 51 52 52 51 51
42 43 45 46 47 48 48 48 49 50 50 49 49 49 50 50 50 51 51 51 51 52 52 52 51 51 50 51 51 51 51 52 53 52 51 51 51 51 51 52 51 50 51
42 42 44 46 46 46 46 46 47 47 48 49 48 48 49 49 49 50 50 50 50 50 50 50 50 50 50 50 50 49 50 50 50 50 49 49 50 50 51 51 50 50 51
43 43 44 44 45 45 46 46 47 47 47 48 49 49 49 49 49 49 49 50 51 51 50 50 49 50 50 49 49 49 49 48 48 48 48 48 48 49 49 49 49 50 51
41 42 43 43 43 44 45 45 46 46 47 48 48 48 48 49 49 49 49 49 50 50 50 50 49 48 48 47 47 47 48 47 46 46 46 46 47 48 47 48 48 49 50
Wind_Direction
243 243 244 244 245 246 247 249 250 252 254 255 257 259 260 262 264 266 268 270 272 274 276 279 281 283 285 286 287 289 290 291 292 293 294 294 295 295 296 297 297 298 299
243 244 244 245 246 246 247 248 250 251 253 255 256 258 260 262 264 265 267 269 271 273 275 277 280 283 284 286 287 288 289 290 291 292 292 292 292 293 294 295 296 296 298
244 244 245 246 246 246 247 248 249 251 253 255 256 259 261 262 263 264 266 268 270 272 274 277 279 282 283 285 286 287 288 289 289 290 291 291 290 290 292 293 294 295 297
245 245 245 246 247 247 248 248 249 251 253 255 257 259 261 262 263 264 266 267 270 272 274 276 279 281 282 283 285 286 288 288 288 290 291 291 291 291 291 292 293 294 296
245 246 246 247 248 248 249 250 251 251 253 255 257 259 260 261 262 263 265 267 268 271 273 276 278 280 281 282 284 285 287 288 288 289 290 291 291 291 292 292 292 294 295
245 245 246 247 248 249 250 251 252 252 253 254 256 258 258 259 261 262 264 266 268 270 273 275 277 279 280 281 283 285 286 287 288 289 290 291 291 291 292 292 292 294 296
246 245 246 247 248 249 250 251 252 252 252 253 254 256 257 258 260 262 263 265 267 270 272 274 276 278 279 280 282 284 286 287 288 289 290 290 291 291 291 292 293 294 296
248 247 247 248 249 249 250 251 252 253 253 253 254 254 255 256 258 260 262 264 266 268 270 272 274 276 277 280 282 284 285 286 288 288 289 290 291 291 291 292 293 294 296
250 248 247 248 249 249 250 251 252 254 254 255 254 254 254 255 257 259 261 263 265 267 269 271 273 275 276 279 281 283 285 286 287 288 289 290 290 291 291 292 293 295 297
251 250 248 249 249 250 251 251 252 253 254 254 255 255 255 255 257 258 260 263 265 266 268 271 272 274 276 278 281 283 284 285 287 288 289 289 290 291 291 292 294 296 297
252 251 250 249 249 250 250 251 251 251 252 253 254 255 255 256 258 259 261 262 264 266 268 270 271 273 275 278 280 282 284 285 286 287 288 289 290 291 292 293 294 296 297
252 251 251 250 250 250 250 250 250 251 251 252 253 254 255 255 256 258 259 261 264 266 267 269 271 273 275 277 280 282 283 285 286 287 288 289 290 291 292 293 295 296 297
252 251 251 251 250 250 251 250 250 251 251 252 253 254 254 255 255 257 259 261 263 265 267 268 270 273 275 277 279 281 282 284 285 286 287 288 289 290 291 293 295 296 297
253 252 252 252 251 251 250 250 250 250 250 251 252 253 254 254 255 256 258 260 262 264 266 268 271 273 275 277 278 281 282 283 284 285 286 287 288 289 291 293 295 296 298
254 252 251 250 249 249 250 250 249 250 250 251 252 254 255 255 256 257 258 260 262 265 267 269 271 273 274 276 278 280 281 283 284 285 286 287 288 290 291 293 295 297 298
255 253 251 250 249 248 249 250 250 250 250 252 253 254 256 257 258 259 259 261 263 265 267 268 271 273 274 276 277 279 281 282 284 284 286 286 288 290 292 294 295 297 298
254 253 252 252 252 251 250 250 250 251 252 253 253 254 256 258 259 260 262 263 264 265 267 268 270 272 274 276 277 278 280 281 283 284 285 287 288 290 292 293 295 297 298
255 254 254 252 252 252 251 251 250 250 251 252 253 254 255 257 259 261 262 263 265 266 267 269 270 272 273 275 276 277 279 281 282 284 285 287 288 290 291 293 294 296 298
256 255 255 253 252 252 251 251 251 250 250 252 253 254 256 258 260 262 263 264 265 267 268 269 270 271 273 274 276 278 280 281 282 283 285 286 287 289 291 292 294 296 298
257 256 254 253 252 250 251 251 252 252 252 253 254 255 257 259 260 262 263 264 265 266 267 268 269 270 272 274 276 277 279 280 280 282 283 285 287 289 291 292 294 296 298
259 258 256 255 253 252 252 253 253 254 254 254 255 256 258 260 260 262 263 264 265 266 266 268 269 270 271 273 275 277 278 279 280 281 283 285 287 288 290 292 294 297 298
261 259 258 256 255 253 253 254 255 255 255 256 257 257 258 259 260 261 262 264 265 266 267 268 269 270 271 272 274 276 278 279 281 282 283 285 286 288 290 292 295 296 297
262 261 259 258 257 256 255 256 256 256 257 257 258 259 259 259 260 261 262 264 266 267 267 268 269 270 271 272 274 275 277 278 280 282 283 285 286 288 290 292 294 295 297
263 263 261 260 259 257 256 256 256 257 257 257 257 258 259 260 261 261 262 264 266 267 268 269 270 270 270 272 273 276 277 279 280 281 283 285 287 288 291 293 294 295 297
264 263 262 261 260 258 257 256 257 257 257 257 257 258 260 261 262 262 263 264 265 266 268 269 269 270 271 272 273 275 277 278 279 281 283 285 287 289 291 292 293 295 297
266 266 265 262 261 259 259 258 258 259 258 258 258 258 260 261 261 262 263 264 265 267 268 269 269 270 272 273 274 275 276 277 278 281 284 285 287 289 290 291 293 294 297